Notices

What's New in latest Release from April 7th, 2021:

- Updated Glossary, including Speed of Maximum Gust, and Total Hourly Precipitation

- Updated national and regional climate services offices contacts and prices information

- Addition of station inventory lists for 1981-2010, 1971-2000, and 1961-1990 Normals.

If you haven't already, please take our survey and provide feedback about our website: https://eccc.sondage-survey.ca/f/LanguageSelection.aspx?s=442ca660-fcf1-47c0-95a9-59707d6fd709

Hourly Data Report for April 21, 2019

MIRAMICHI RCS
NEW BRUNSWICK
Current Station Operator: ECCC - MSC

47°00'34.000" N
65°27'54.000" W
33.00 m
8100989
71744
ACQ

Download Data

Hourly Data (April 2019)
Hourly Data Report for April 21, 2019
TIME
LST
Temp Definition
°C
Dew Point Definition
°C
Rel Hum Definition
%
Precip. Amount Definition
mm

Wind Dir Definition
10's deg

Wind Spd Definition
km/h
Visibility Definition
km
Stn Press Definition
kPa
Hmdx Definition


Wind Chill Definition


Weather Definition


00:00 1.5 1.1 97 0.0 4 9   101.76     LegendNANA
01:00 1.4 1.0 97 0.0 4 8   101.73     LegendNANA
02:00 1.4 1.0 97 0.0 4 7   101.70     LegendNANA
03:00 1.5 1.2 98 0.2 6 9   101.61     LegendNANA
04:00 1.4 1.0 98 0.0 1 5   101.58     LegendNANA
05:00 1.4 1.0 98 0.0 4 4   101.57     LegendNANA
06:00 1.4 1.1 98 0.0 5 3   101.57     LegendNANA
07:00 1.7 1.4 98 0.0   0   101.53     LegendNANA
08:00 2.2 1.8 98 0.0 9 3   101.48     LegendNANA
09:00 2.5 2.2 98 0.2 30 3   101.53     LegendNANA
10:00 3.4 3.1 98 0.0 14 1   101.50     LegendNANA
11:00 5.8 5.5 98 0.0 20 6   101.43     LegendNANA
12:00 9.9 9.6 99 0.0 22 9   101.31     LegendNANA
13:00 11.1 10.6 97 0.0 28 3   101.32     LegendNANA
14:00 15.5 13.9 90 0.0 21 23   101.28     LegendNANA
15:00 16.2 14.1 88 0.0 22 21   101.27     LegendNANA
16:00 16.1 14.3 89 0.0 23 15   101.24     LegendNANA
17:00 16.1 14.2 89 0.0 21 17   101.26     LegendNANA
18:00 15.5 13.7 90 0.0 20 15   101.26     LegendNANA
19:00 14.4 13.0 92 0.0 21 18   101.30     LegendNANA
20:00 13.5 12.8 96 0.6 22 17   101.35     LegendNANA
21:00 13.0 12.5 97 0.7 21 16   101.41     LegendNANA
22:00 12.4 11.9 97 1.1 23 10   101.46     LegendNANA
23:00 12.2 11.8 98 0.9 21 13   101.44     LegendNANA

Notes on Data Quality.

Legend

  • E = Estimated
  • M = Missing
  • NA = Not Available*
  • [empty] = Indicates an unobserved value
Date modified: